Flag for Germany Weather past 2 weeks in Bernau bei Berlin, Brandenburg, Germany

Now
42 °F

Passing clouds.


Feels Like: 39 °F
Forecast: 35 / 51 °F
Wind: 5 mph from Southwest

Location: Berlin-Tegel

Current Time: Mar 6, 2015 at 10:48:23 PM

Latest Report: Mar 6, 2015 at 10:00 PM


Visibility: 14 mi

Pressure: 30.53 "Hg

Humidity: 82%

Dew point: 37 °F

Location of Bernau bei BerlinLocation

Historic Weather in Bernau bei Berlin — Graph

°F

Bernau bei Berlin temperature yesterday

Maximum temperature yesterday: 44 °F (at 4:00 PM)
Minimum temperature yesterday: 36 °F (at 1:00 AM)
Average temperature yesterday: 39 °F

Past Weeks' High & Low Weather Summary

 TemperatureHumidityPressure
High52 °F (Feb 21, 12:00 PM)100% (Mar 6, 4:00 AM)30.56 "Hg (Mar 6, 4:00 AM)
Low27 °F (Feb 20, 5:00 AM)40% (Feb 26, 3:00 PM)29.35 "Hg (Feb 21, 2:00 PM)
Average39 °F78%29.92 "Hg
* Reported Feb 19 9:00 PM — Mar 6 9:00 PM, Bernau bei Berlin, Weather by CustomWeather, © 2015

Note: Actual official high and low records may vary slightly from our data, if they occured in-between our weather recording intervals... More about our weather records

Advertising

Bernau bei Berlin weather history for previous 24 hours

 ConditionsComfort  
Time TempWeatherWind HumidityBarometerVisibility
9:00 PM
Fri, Mar 6
43 °FOvercast.5 mph81%30.53 "Hg14 mi
8:00 PM41 °FPassing clouds.3 mph82%30.53 "Hg14 mi
7:00 PM43 °FOvercast.3 mph80%30.53 "Hg16 mi
6:00 PM44 °FOvercast.3 mph77%30.50 "Hg10 mi
5:00 PM45 °FOvercast.5 mph75%30.50 "Hg12 mi
4:00 PM45 °FOvercast.6 mph73%30.50 "Hg12 mi
3:00 PM46 °FOvercast.7 mph71%30.50 "Hg14 mi
2:00 PM46 °FOvercast.7 mph76%30.50 "Hg12 mi
1:00 PM44 °FOvercast.6 mph79%30.52 "Hg11 mi
12:00 PM43 °FOvercast.6 mph82%30.53 "Hg11 mi
11:00 AM42 °FOvercast.5 mph85%30.53 "Hg9 mi
10:00 AM41 °FLight rain. Overcast.3 mph89%30.54 "Hg8 mi
9:00 AM40 °FOvercast.3 mph91%30.54 "Hg8 mi
8:00 AM38 °FOvercast.3 mph93%30.53 "Hg7 mi
7:00 AM37 °FOvercast.3 mph97%30.54 "Hg6 mi
6:00 AM36 °FOvercast.1 mph98%30.54 "Hg9 mi
5:00 AM33 °FOvercast.1 mph100%30.54 "Hg16 mi
4:00 AM32 °FOvercast.No wind100%30.55 "Hg14 mi
3:00 AM30 °FFog.1 mph96%30.55 "Hg2 mi
2:00 AM33 °FFog.No wind97%30.55 "Hg19 mi
1:00 AM34 °FPassing clouds.No wind97%30.56 "Hg22 mi
12:00 AM34 °FFog.1 mph95%30.56 "Hg22 mi
10:00 PM
Thu, Mar 5
36 °FPassing clouds.1 mph92%30.54 "Hg22 mi
Weather by CustomWeather, © 2015

See weather overviewHow to use our weather pages